TimeIST,TemperatureF,Dew PointF,Humidity,Sea Level PressureIn,VisibilityMPH,Wind Direction,Wind SpeedMPH,Gust SpeedMPH,PrecipitationIn,Events,Conditions,WindDirDegrees,DateUTC
12:40 AM,82.4,53.6,37,29.89,1.6,Calm,Calm,-,N/A,,Smoke,0,2013-03-06 19:10:00
1:10 AM,80.6,53.6,39,29.89,1.6,Calm,Calm,-,N/A,,Smoke,0,2013-03-06 19:40:00
1:40 AM,78.8,53.6,42,29.86,1.4,Calm,Calm,-,N/A,,Smoke,0,2013-03-06 20:10:00
2:10 AM,78.8,53.6,42,29.86,1.4,Calm,Calm,-,N/A,,Smoke,0,2013-03-06 20:40:00
2:30 AM,71,55,48,29.86,1,Calm,Calm,,,,Smoke,,2013-03-06 21:00:00
2:40 AM,78.8,53.6,42,29.86,1.4,East,4.6,-,N/A,,Smoke,90,2013-03-06 21:10:00
3:10 AM,80.6,55.4,42,29.86,1.1,Calm,Calm,-,N/A,,Smoke,0,2013-03-06 21:40:00
3:40 AM,78.8,55.4,44,29.83,1.1,Variable,2.3,-,N/A,,Smoke,0,2013-03-06 22:10:00
4:10 AM,77.0,53.6,44,29.86,1.1,Calm,Calm,-,N/A,,Smoke,0,2013-03-06 22:40:00
4:40 AM,77.0,53.6,44,29.83,1.4,ESE,3.5,-,N/A,,Smoke,110,2013-03-06 23:10:00
5:10 AM,75.2,53.6,47,29.86,1.3,Calm,Calm,-,N/A,,Smoke,0,2013-03-06 23:40:00
5:30 AM,67,56,59,29.85,1,Calm,Calm,,,,Smoke,,2013-03-07 00:00:00
5:40 AM,77.0,53.6,44,29.86,1.1,Calm,Calm,-,N/A,,Smoke,0,2013-03-07 00:10:00
6:10 AM,78.8,51.8,39,29.86,1.4,Variable,3.5,-,N/A,,Smoke,0,2013-03-07 00:40:00
6:40 AM,80.6,48.2,32,29.86,1.4,Variable,2.3,-,N/A,,Smoke,0,2013-03-07 01:10:00
7:10 AM,80.6,50.0,34,29.89,1.4,SSE,3.5,-,N/A,,Smoke,150,2013-03-07 01:40:00
7:40 AM,80.6,48.2,32,29.89,1.1,Variable,2.3,-,N/A,,Smoke,0,2013-03-07 02:10:00
8:10 AM,82.4,48.2,30,29.92,1.1,Calm,Calm,-,N/A,,Smoke,0,2013-03-07 02:40:00
10:40 AM,96.8,46.4,18,29.92,2.5,East,10.4,-,N/A,,Smoke,80,2013-03-07 05:10:00
11:10 AM,96.8,46.4,18,29.92,2.5,East,10.4,-,N/A,,Smoke,100,2013-03-07 05:40:00
11:30 AM,99,45,9,29.91,1,East,6.9,,,,Smoke,90,2013-03-07 06:00:00
11:40 AM,98.6,48.2,18,29.92,2.5,ESE,9.2,-,N/A,,Smoke,120,2013-03-07 06:10:00
12:40 PM,100.4,46.4,16,29.86,3.1,SE,8.1,-,N/A,,Smoke,140,2013-03-07 07:10:00
1:10 PM,102.2,46.4,15,29.86,3.1,SE,8.1,-,N/A,,Smoke,130,2013-03-07 07:40:00
1:40 PM,102.2,46.4,15,29.83,3.7,SSE,6.9,-,N/A,,Unknown,160,2013-03-07 08:10:00
2:30 PM,101,53,12,29.82,2,West,9.2,,,,,270,2013-03-07 09:00:00
2:40 PM,96.8,59.0,28,29.80,3.1,West,11.5,-,N/A,,Smoke,280,2013-03-07 09:10:00
3:10 PM,96.8,50.0,20,29.80,3.7,West,12.7,-,N/A,,Unknown,270,2013-03-07 09:40:00
3:40 PM,98.6,48.2,18,29.80,3.7,West,9.2,-,N/A,,Unknown,260,2013-03-07 10:10:00
4:10 PM,96.8,53.6,23,29.80,3.7,West,10.4,-,N/A,,Unknown,280,2013-03-07 10:40:00
4:40 PM,93.2,53.6,26,29.80,3.7,WNW,10.4,-,N/A,,Unknown,300,2013-03-07 11:10:00
5:10 PM,93.2,51.8,24,29.83,3.7,WNW,9.2,-,N/A,,Unknown,300,2013-03-07 11:40:00
5:30 PM,93,50,15,29.82,2,NNW,9.2,,,,Smoke,340,2013-03-07 12:00:00
5:40 PM,93.2,50.0,23,29.83,3.7,WNW,8.1,-,N/A,,Unknown,300,2013-03-07 12:10:00
6:40 PM,91.4,48.2,23,29.83,2.8,NW,5.8,-,N/A,,Smoke,310,2013-03-07 13:10:00
7:10 PM,91.4,44.6,20,29.86,2.5,WNW,3.5,-,N/A,,Smoke,300,2013-03-07 13:40:00
7:40 PM,91.4,46.4,21,29.86,2.5,NW,5.8,-,N/A,,Smoke,320,2013-03-07 14:10:00
8:10 PM,89.6,48.2,24,29.89,2.5,West,4.6,-,N/A,,Smoke,260,2013-03-07 14:40:00
8:30 PM,87,48,17,29.89,1,WNW,4.6,,,,Smoke,290,2013-03-07 15:00:00
8:40 PM,87.8,53.6,31,29.89,2.5,West,6.9,-,N/A,,Smoke,270,2013-03-07 15:10:00
9:10 PM,87.8,51.8,29,29.89,2.5,West,3.5,-,N/A,,Smoke,280,2013-03-07 15:40:00
9:40 PM,87.8,46.4,24,29.92,2.8,NW,4.6,-,N/A,,Smoke,320,2013-03-07 16:10:00
10:10 PM,87.8,46.4,24,29.92,3.1,NNW,5.8,-,N/A,,Smoke,330,2013-03-07 16:40:00
10:40 PM,87.8,44.6,22,29.92,3.1,Calm,Calm,-,N/A,,Smoke,0,2013-03-07 17:10:00
11:10 PM,87.8,44.6,22,29.92,3.1,North,5.8,-,N/A,,Smoke,350,2013-03-07 17:40:00
11:30 PM,84,49,19,29.91,1,North,6.9,,,,Smoke,0,2013-03-07 18:00:00
11:40 PM,86.0,48.2,27,29.89,3.1,North,3.5,-,N/A,,Smoke,10,2013-03-07 18:10:00